Home > Weather > Norfolk > Past weeks

Flag for Canada Past Weather in Norfolk, Ontario, Canada — Yesterday and Last 2 Weeks

Now
78 °F

Warm.


Feels Like: 80 °F
Forecast: N/A
Wind: 6 mph from South

Location: Delhi Cs Ont

Current Time: Jul 24, 2016 at 6:32:38 PM

Latest Report: Jul 24, 2016 at 6:00 PM


Visibility: N/A

Pressure: 29.94 "Hg

Humidity: 70%

Dew Point: 67 °F

Location of NorfolkLocation

Past Weather in Norfolk — Graph

°F

Norfolk Temperature Yesterday

Maximum temperature yesterday: 90 °F (at 3:00 PM)
Minimum temperature yesterday: 61 °F (at 5:00 AM)
Average temperature yesterday: 77 °F

High & Low Weather Summary for the Past Weeks

 TemperatureHumidityPressure
High91 °F (Jul 22, 4:00 PM)99% (Jul 23, 1:00 AM)30.27 "Hg (Jul 23, 1:00 AM)
Low47 °F (Jul 20, 6:00 AM)27% (Jul 20, 4:00 PM)29.73 "Hg (Jul 14, 6:00 AM)
Average72 °F66%29.99 "Hg
* Reported Jul 9 5:00 PM — Jul 24 5:00 PM, Norfolk, Weather by CustomWeather, © 2016

Note: Actual official high and low records may vary slightly from our data, if they occured in-between our weather recording intervals... More about our weather records

Advertising

Norfolk Weather History for the Previous 24 Hours

Scroll right to see more
 ConditionsComfort  
Time TempWeatherWind HumidityBarometerVisibility
5:00 PM
Sun, Jul 24
75 °FMild.6 mph75%29.94 "HgN/A
4:00 PM80 °FWarm.5 mph63%29.94 "HgN/A
3:00 PM83 °FWarm.5 mph48%29.94 "HgN/A
2:00 PM82 °FWarm.5 mph54%29.95 "HgN/A
1:00 PM83 °FWarm.7 mph51%29.96 "HgN/A
12:00 PM81 °FWarm.5 mph56%29.98 "HgN/A
11:00 AM77 °FWarm.2 mph63%30.00 "HgN/A
10:00 AM75 °FMild.2 mph59%29.99 "HgN/A
9:00 AM73 °FMild.2 mph66%29.98 "HgN/A
8:00 AM71 °FMild.2 mph69%29.98 "HgN/A
7:00 AM58 °FCool.1 mph99%29.99 "HgN/A
6:00 AM59 °FCool.No wind93%29.99 "HgN/A
5:00 AM59 °FCool.No wind93%29.99 "HgN/A
4:00 AM61 °FCool.No wind90%29.99 "HgN/A
3:00 AM61 °FCool.No wind85%29.97 "HgN/A
2:00 AM61 °FCool.No wind88%29.97 "HgN/A
1:00 AM64 °FMild.1 mph87%29.98 "HgN/A
12:00 AM65 °FMild.2 mph83%29.98 "HgN/A
11:00 PM
Sat, Jul 23
69 °FMild.1 mph69%29.98 "HgN/A
10:00 PM71 °FMild.2 mph63%29.97 "HgN/A
9:00 PM77 °FMild.5 mph50%29.94 "HgN/A
8:00 PM83 °FPleasantly warm.5 mph36%29.93 "HgN/A
7:00 PM87 °FPleasantly warm.8 mph30%29.91 "HgN/A
6:00 PM89 °FHot.9 mph30%29.93 "HgN/A
Weather by CustomWeather, © 2016

See weather overviewHow to use our weather pages